EW1525 Weather Reports


time (UTC)temp
C
wind
direction
speed
KPH
gust
KPH
rain 1hr
cm
rain 24hr
cm
rain mn
cm
humidity
%
barometer
mb
20260507051003 13 0 0.0 4.8 0.00 0.33 0.00 1 1006.6
20260507050504 13 0 0.0 4.8 0.00 0.33 0.00 1 1006.6
20260507045503 13 0 0.0 8.0 0.00 0.33 0.00 1 1006.5
20260507045003 13 0 0.0 8.0 0.00 0.33 0.00 1 1006.6
20260507044503 13 0 0.0 3.2 0.00 0.33 0.00 1 1006.6
20260507044003 13 0 0.0 3.2 0.00 0.33 0.00 1 1006.6
20260507043503 13 0 0.0 1.6 0.00 0.33 0.00 1 1006.6
20260507043004 13 0 0.0 4.8 0.00 0.33 0.00 1 1006.5
20260507042503 13 0 0.0 4.8 0.00 0.33 0.00 1 1006.5
20260507042004 13 0 0.0 1.6 0.00 0.33 0.00 1 1006.5
20260507041503 13 0 0.0 3.2 0.00 0.33 0.00 1 1006.4
20260507040503 13 0 0.0 4.8 0.00 0.33 0.00 1 1006.5
20260507040004 13 0 0.0 4.8 0.00 0.33 0.00 1 1006.5
20260507035504 13 0 0.0 4.8 0.00 0.33 0.33 1 1006.3
20260507035004 13 0 0.0 3.2 0.00 0.33 0.33 1 1006.4
20260507034503 13 167 1.6 8.0 0.00 0.33 0.33 1 1006.5
20260507034003 13 169 1.6 8.0 0.00 0.33 0.33 1 1006.5
20260507033503 13 0 0.0 3.2 0.00 0.33 0.33 1 1006.7
20260507033004 13 165 1.6 8.0 0.00 0.33 0.33 1 1006.9
20260507032503 13 169 1.6 8.0 0.00 0.33 0.33 1 1007.0
20260507032003 13 173 1.6 8.0 0.00 0.33 0.33 1 1006.8
20260507031503 13 175 1.6 11.3 0.00 0.33 0.33 1 1006.8
20260507030003 13 176 1.6 11.3 0.00 0.33 0.33 1 1006.6
20260507025504 13 187 1.6 9.7 0.00 0.33 0.33 1 1006.7
20260507025003 13 189 1.6 9.7 0.00 0.33 0.33 1 1006.6
20260507024503 13 181 1.6 6.4 0.00 0.33 0.33 1 1006.5
20260507024003 13 183 1.6 9.7 0.00 0.33 0.33 1 1006.6
20260507023503 13 184 1.6 9.7 0.00 0.33 0.33 1 1006.7
20260507022503 13 189 1.6 8.0 0.00 0.33 0.33 1 1006.6
20260507022003 13 0 0.0 6.4 0.00 0.33 0.33 1 1006.6
20260507021004 13 0 0.0 8.0 0.00 0.33 0.33 1 1006.7
20260507020503 13 174 1.6 8.0 0.00 0.33 0.33 1 1006.7
20260507020003 13 171 1.6 8.0 0.00 0.33 0.33 1 1006.8
20260507015004 13 172 1.6 9.7 0.00 0.33 0.33 1 1007.0
20260507014503 13 174 1.6 9.7 0.00 0.33 0.33 1 1007.1
20260507014003 13 155 1.6 12.9 0.00 0.33 0.33 1 1007.2
20260507013503 13 168 1.6 12.9 0.00 0.33 0.33 1 1006.9
20260507013004 13 0 0.0 8.0 0.00 0.33 0.33 1 1007.0
20260507012503 13 177 1.6 8.0 0.00 0.33 0.33 1 1007.2
20260507011503 13 176 1.6 9.7 0.00 0.33 0.33 1 1007.2
20260507011004 13 177 1.6 11.3 0.00 0.33 0.33 1 1007.2
20260507010503 13 169 1.6 11.3 0.00 0.33 0.33 1 1007.3
20260507010004 13 0 0.0 6.4 0.00 0.33 0.33 1 1007.4
20260507005503 13 174 1.6 14.5 0.00 0.33 0.33 1 1007.3
20260507005004 13 183 1.6 14.5 0.00 0.33 0.33 1 1007.3
20260507004503 13 188 3.2 14.5 0.00 0.33 0.33 1 1007.3
20260507004004 13 189 1.6 8.0 0.00 0.33 0.33 1 1007.3
20260507003504 13 179 1.6 8.0 0.00 0.33 0.33 1 1007.2
20260507003004 13 179 1.6 8.0 0.00 0.33 0.33 1 1007.2
20260507002503 13 191 1.6 12.9 0.03 0.33 0.33 1 1007.3
20260507002004 13 185 3.2 12.9 0.05 0.33 0.33 1 1007.2
20260507001503 13 179 3.2 14.5 0.05 0.33 0.33 1 1007.2
20260507001003 13 183 3.2 14.5 0.05 0.33 0.33 1 1007.2
20260507000503 13 187 3.2 11.3 0.05 0.33 0.33 1 1007.2
20260507000004 13 187 3.2 16.1 0.05 0.33 0.33 1 1007.2
20260506235504 13 187 3.2 16.1 0.08 0.33 0.33 1 1007.1
20260506235003 13 191 3.2 14.5 0.08 0.33 0.33 1 1007.2
20260506234503 13 190 3.2 12.9 0.10 0.33 0.33 1 1007.1
20260506234004 13 187 3.2 12.9 0.10 0.33 0.33 1 1007.2
20260506233503 13 181 3.2 16.1 0.13 0.33 0.33 1 1007.2
20260506233003 13 181 3.2 16.1 0.13 0.33 0.33 1 1007.2
20260506232503 13 186 3.2 11.3 0.15 0.30 0.30 1 1007.3
20260506232004 13 189 3.2 11.3 0.13 0.28 0.28 1 1007.3
20260506231504 13 187 3.2 11.3 0.15 0.28 0.28 1 1007.3
20260506231003 13 183 3.2 16.1 0.15 0.28 0.28 1 1007.3
20260506230503 13 188 4.8 16.1 0.15 0.28 0.28 1 1007.2
20260506230004 13 189 3.2 11.3 0.15 0.25 0.25 1 1007.3
20260506225504 13 184 3.2 14.5 0.15 0.25 0.25 1 1007.2
20260506225003 13 183 3.2 14.5 0.13 0.23 0.23 1 1007.1
20260506224503 13 185 3.2 12.9 0.13 0.23 0.23 1 1007.1
20260506224003 13 194 3.2 11.3 0.10 0.20 0.20 1 1007.1
20260506223504 13 191 4.8 17.7 0.10 0.20 0.20 1 1007.1
20260506222504 13 187 3.2 12.9 0.05 0.15 0.15 1 1007.2
20260506222003 13 192 3.2 14.5 0.05 0.15 0.15 1 1007.3
20260506221504 13 191 3.2 14.5 0.03 0.13 0.13 1 1007.2
20260506221004 13 189 4.8 14.5 0.03 0.13 0.13 1 1007.7
20260506220504 13 185 4.8 14.5 0.05 0.13 0.13 1 1007.5
20260506220003 13 176 3.2 20.9 0.03 0.10 0.10 1 1007.6
20260506215503 13 182 4.8 20.9 0.03 0.10 0.10 1 1007.7
20260506215004 13 187 4.8 12.9 0.05 0.10 0.10 1 1007.6
20260506214503 13 186 4.8 19.3 0.05 0.10 0.10 1 1007.5
20260506214003 13 191 4.8 19.3 0.05 0.10 0.10 1 1007.6
20260506213003 13 188 4.8 24.1 0.05 0.10 0.10 1 1007.6
20260506212503 13 189 4.8 20.9 0.05 0.10 0.10 1 1007.8
20260506211003 13 188 4.8 16.1 0.05 0.10 0.10 1 1007.9
20260506210503 13 181 4.8 16.1 0.03 0.08 0.08 1 1007.9
20260506205503 13 193 4.8 22.5 0.03 0.08 0.08 1 1007.9
20260506205003 13 192 4.8 24.1 0.00 0.05 0.05 1 1008.1
20260506203503 13 187 4.8 19.3 0.05 0.05 0.05 1 1008.1
20260506202504 13 183 4.8 17.7 0.05 0.05 0.05 1 1008.1
20260506202003 13 188 4.8 16.1 0.05 0.05 0.05 1 1008.2
20260506201503 13 190 6.4 22.5 0.05 0.05 0.05 1 1008.2
20260506201003 13 187 6.4 22.5 0.05 0.05 0.05 1 1008.2
20260506200503 13 178 4.8 20.9 0.05 0.05 0.05 1 1008.3
20260506200004 13 179 4.8 14.5 0.05 0.05 0.05 1 1008.3
20260506195503 18 175 3.2 11.3 0.05 0.05 0.05 63 1008.4
20260506194503 18 181 3.2 12.9 0.03 0.03 0.03 63 1008.6
20260506193503 18 188 3.2 16.1 0.00 0.00 0.00 63 1008.6
20260506193003 18 177 4.8 16.1 0.00 0.00 0.00 63 1008.6
20260506192503 18 181 4.8 11.3 0.00 0.00 0.00 63 1008.6
20260506190503 18 179 4.8 16.1 0.00 0.00 0.00 63 1008.6
20260506190004 18 183 4.8 24.1 0.00 0.00 0.00 63 1008.7
20260506185503 18 182 4.8 24.1 0.00 0.00 0.00 63 1008.7
20260506185003 18 175 4.8 17.7 0.00 0.00 0.00 63 1008.6
20260506184503 18 174 4.8 17.7 0.00 0.00 0.00 63 1008.6
20260506184003 18 183 4.8 11.3 0.00 0.00 0.00 63 1008.6
20260506183504 18 188 3.2 12.9 0.00 0.00 0.00 63 1008.8
20260506183003 18 181 4.8 24.1 0.00 0.00 0.00 63 1009.0
20260506182503 18 181 6.4 24.1 0.00 0.00 0.00 63 1009.0
20260506182003 18 181 6.4 19.3 0.00 0.00 0.00 63 1009.0
20260506181503 18 183 3.2 19.3 0.00 0.00 0.00 63 1009.1
20260506180503 18 184 6.4 24.1 0.00 0.00 0.00 63 1009.2
20260506180005 18 178 4.8 24.1 0.00 0.00 0.00 63 1009.3
20260506175503 18 179 6.4 25.7 0.00 0.00 0.00 63 1009.4
20260506175003 18 178 6.4 25.7 0.00 0.00 0.00 63 1009.6
20260506174503 18 172 4.8 24.1 0.00 0.00 0.00 63 1009.6
20260506174004 18 178 6.4 24.1 0.00 0.00 0.00 63 1009.7
20260506173003 18 181 6.4 27.4 0.00 0.00 0.00 63 1009.9
20260506172503 18 186 6.4 27.4 0.00 0.00 0.00 63 1009.8
20260506171503 18 188 4.8 29.0 0.00 0.00 0.00 63 1009.7
20260506171003 18 179 6.4 29.0 0.00 0.00 0.00 63 1009.7
20260506170504 18 177 4.8 24.1 0.00 0.00 0.00 63 1009.7
20260506170003 18 183 4.8 14.5 0.00 0.00 0.00 63 1009.8
20260506165503 18 192 6.4 30.6 0.00 0.00 0.00 63 1010.0
20260506164503 18 186 6.4 22.5 0.00 0.00 0.00 63 1010.2
20260506164003 18 185 6.4 25.7 0.00 0.00 0.00 63 1010.1
20260506163503 18 192 6.4 25.7 0.00 0.00 0.00 63 1010.1
20260506163004 18 194 4.8 16.1 0.00 0.00 0.00 63 1010.3
20260506162504 18 182 6.4 24.1 0.00 0.00 0.00 63 1010.2
20260506160003 18 176 4.8 16.1 0.00 0.00 0.00 63 1010.5
20260506155503 18 185 4.8 20.9 0.00 0.00 0.00 63 1010.7
20260506155004 18 194 6.4 20.9 0.00 0.00 0.00 63 1010.7
20260506154503 18 189 8.0 25.7 0.00 0.00 0.00 63 1010.6
20260506154003 18 182 6.4 25.7 0.00 0.00 0.00 63 1010.8
20260506153503 18 182 6.4 19.3 0.00 0.00 0.00 63 1010.7
20260506153004 18 179 6.4 22.5 0.00 0.00 0.00 63 1010.8
20260506152503 18 181 8.0 27.4 0.00 0.00 0.00 63 1010.9
20260506152003 18 179 9.7 29.0 0.00 0.00 0.00 63 1010.8
20260506151503 18 181 8.0 29.0 0.00 0.00 0.00 63 1010.9
20260506151004 18 185 6.4 25.7 0.00 0.00 0.00 63 1011.1
20260506150503 18 192 6.4 25.7 0.00 0.00 0.00 63 1011.0
20260506150003 18 197 4.8 19.3 0.00 0.00 0.00 63 1011.0
20260506145503 18 183 4.8 14.5 0.00 0.00 0.00 63 1011.1
20260506145004 18 179 6.4 22.5 0.00 0.00 0.00 63 1010.8
20260506144504 18 181 6.4 22.5 0.00 0.00 0.00 63 1010.9
20260506144003 18 186 4.8 20.9 0.00 0.00 0.00 63 1010.9
20260506143503 18 187 6.4 17.7 0.00 0.00 0.00 63 1010.9
20260506143004 18 190 4.8 16.1 0.00 0.00 0.00 63 1010.9
20260506142504 18 193 4.8 17.7 0.00 0.00 0.00 63 1010.9
20260506142003 18 189 6.4 17.7 0.00 0.00 0.00 63 1011.0
20260506141004 18 185 6.4 25.7 0.00 0.00 0.00 63 1010.7
20260506140004 18 184 4.8 14.5 0.00 0.00 0.00 63 1010.9
20260506135503 18 183 4.8 17.7 0.00 0.00 0.00 60 1010.9
20260506135004 18 176 4.8 17.7 0.00 0.00 0.00 63 1010.9
20260506134004 18 179 4.8 12.9 0.00 0.00 0.00 59 1011.2
20260506133504 18 175 4.8 12.9 0.00 0.00 0.00 61 1011.4
20260506133003 17 179 3.2 9.7 0.00 0.00 0.00 100 1011.4
20260506132004 11 185 4.8 16.1 0.00 0.00 0.00 100 1011.4
20260506131504 11 186 3.2 16.1 0.00 0.00 0.00 100 1011.2
20260506131003 11 196 3.2 12.9 0.00 0.00 0.00 100 1011.3
20260506130503 11 183 4.8 19.3 0.00 0.00 0.00 100 1011.4
20260506130004 11 181 4.8 19.3 0.00 0.00 0.00 100 1011.3
20260506125504 11 184 4.8 14.5 0.00 0.00 0.00 100 1011.4
20260506125003 11 174 4.8 16.1 0.00 0.00 0.00 100 1011.2
20260506124503 11 168 4.8 16.1 0.00 0.00 0.00 100 1011.2
20260506123503 11 183 3.2 8.0 0.00 0.00 0.00 100 1011.2
20260506123003 11 179 4.8 17.7 0.00 0.00 0.00 100 1011.2
20260506122503 11 178 4.8 17.7 0.00 0.00 0.00 100 1011.2
20260506122003 11 181 4.8 11.3 0.00 0.00 0.00 100 1011.4
20260506121503 11 181 3.2 12.9 0.00 0.00 0.00 100 1011.4
20260506121003 11 183 3.2 12.9 0.00 0.00 0.00 100 1011.4
20260506120503 11 175 3.2 14.5 0.00 0.00 0.00 100 1011.6
20260506115503 11 183 3.2 17.7 0.00 0.00 0.00 100 1011.6
20260506114503 11 177 3.2 9.7 0.00 0.00 0.00 100 1011.6
20260506114003 11 173 3.2 9.7 0.00 0.00 0.00 100 1011.6
20260506113503 11 179 3.2 16.1 0.00 0.00 0.00 100 1011.6
20260506113003 11 179 3.2 16.1 0.00 0.00 0.00 100 1011.7
20260506112503 11 188 4.8 9.7 0.00 0.00 0.00 100 1011.8
20260506112004 11 186 4.8 12.9 0.00 0.00 0.00 100 1011.9
20260506111003 11 181 3.2 11.3 0.00 0.00 0.00 100 1011.8
20260506110503 11 188 3.2 9.7 0.00 0.00 0.00 100 1011.7
20260506110004 11 183 3.2 11.3 0.00 0.00 0.00 100 1011.7
20260506105503 11 175 3.2 11.3 0.00 0.00 0.00 100 1011.6
20260506104504 11 174 3.2 11.3 0.00 0.00 0.00 100 1011.6
20260506104004 11 182 3.2 11.3 0.00 0.00 0.00 100 1011.6
20260506103504 11 172 3.2 12.9 0.00 0.00 0.00 100 1011.6
20260506103003 11 166 1.6 12.9 0.00 0.00 0.00 100 1011.6
20260506102503 11 173 3.2 14.5 0.00 0.00 0.00 100 1011.6
20260506102003 11 164 3.2 14.5 0.00 0.00 0.00 100 1011.5
20260506101504 11 163 3.2 11.3 0.00 0.00 0.00 100 1011.4
20260506101003 11 179 1.6 9.7 0.00 0.00 0.00 100 1011.4
20260506100503 11 183 1.6 6.4 0.00 0.00 0.00 100 1011.3
20260506100004 11 182 1.6 8.0 0.00 0.00 0.00 100 1011.3
20260506095503 11 178 1.6 8.0 0.00 0.00 0.00 100 1011.2
20260506095003 11 165 1.6 8.0 0.00 0.00 0.00 100 1011.3
20260506094503 11 164 1.6 8.0 0.00 0.00 0.00 100 1011.2
20260506093504 11 176 3.2 11.3 0.00 0.00 0.00 100 1011.3
20260506093004 11 184 1.6 8.0 0.00 0.00 0.00 100 1011.4
20260506092503 11 175 1.6 9.7 0.00 0.00 0.00 100 1011.3
20260506091503 11 164 1.6 8.0 0.00 0.00 0.00 100 1011.3
20260506091003 11 173 1.6 8.0 0.00 0.00 0.00 100 1011.3
20260506090503 11 177 1.6 8.0 0.00 0.00 0.00 100 1011.5
20260506090003 11 166 1.6 6.4 0.00 0.00 0.00 100 1011.5
20260506085503 11 163 1.6 8.0 0.00 0.00 0.00 100 1011.7
20260506085003 11 159 1.6 8.0 0.00 0.00 0.00 100 1011.7
20260506084003 11 194 3.2 8.0 0.00 0.00 0.00 100 1011.7
20260506083003 11 191 1.6 9.7 0.00 0.00 0.00 100 1011.8
20260506082503 11 189 1.6 8.0 0.00 0.00 0.00 100 1011.8
20260506082003 11 185 1.6 6.4 0.00 0.00 0.00 100 1011.9
20260506081503 11 181 3.2 11.3 0.00 0.00 0.00 100 1011.8
20260506081004 11 171 3.2 11.3 0.00 0.00 0.00 100 1011.7
20260506080503 11 178 3.2 8.0 0.00 0.00 0.00 100 1011.8
20260506073504 11 190 1.6 11.3 0.00 0.00 0.00 100 1011.7
20260506073004 11 176 1.6 11.3 0.00 0.00 0.00 100 1011.8
20260506072503 11 186 3.2 11.3 0.00 0.00 0.00 100 1011.8
20260506072003 11 194 3.2 12.9 0.00 0.00 0.00 100 1011.7
20260506071504 11 190 3.2 12.9 0.00 0.00 0.00 100 1011.6
20260506071003 11 186 3.2 11.3 0.00 0.00 0.00 100 1011.6
20260506070503 11 185 3.2 9.7 0.00 0.00 0.00 100 1011.7
20260506062504 11 179 3.2 14.5 0.00 0.00 0.00 100 1011.5
20260506062003 11 183 3.2 16.1 0.00 0.00 0.00 100 1011.5
20260506061503 11 183 3.2 16.1 0.00 0.00 0.00 100 1011.5
20260506061005 11 185 3.2 12.9 0.00 0.00 0.00 100 1011.5
20260506060504 11 178 3.2 16.1 0.00 0.00 0.00 100 1011.6